This is the latest recevied weather packets stored in our database for station/object AE6BH. If no packets are shown the sender has not sent any weather packets the latest 10 day(s).
| Time | Temp. | Humidity | Pressure | Rain* | Wind** | Luminosity | Snow |
|---|---|---|---|---|---|---|---|
| 1777560478 | 13.89° C | 73% | 1013.6 hPa | 0 mm | - | 85 W/m² | - |
| 1777560176 | 13.89° C | 74% | 1013.8 hPa | 0 mm | - | 74 W/m² | - |
| 1777559873 | 13.33° C | 75% | 1013.6 hPa | 0 mm | - | 62 W/m² | - |
| 1777559568 | 13.33° C | 77% | 1013.5 hPa | 0 mm | - | 56 W/m² | - |
| 1777559266 | 12.78° C | 77% | 1013.5 hPa | 0 mm | - | 53 W/m² | - |
| 1777558961 | 12.78° C | 78% | 1013.5 hPa | 0 mm | - | 57 W/m² | - |
| 1777558657 | 12.78° C | 82% | 1013.6 hPa | 0 mm | - | 56 W/m² | - |
| 1777558353 | 12.78° C | 83% | 1013.4 hPa | 0 mm | - | 55 W/m² | - |
| 1777558050 | 12.22° C | 83% | 1013.6 hPa | 0 mm | - | 58 W/m² | - |
| 1777557746 | 12.22° C | 83% | 1013.6 hPa | 0 mm | - | 55 W/m² | - |
| 1777557443 | 11.67° C | 83% | 1013.7 hPa | 0 mm | - | 45 W/m² | - |
| 1777557139 | 11.67° C | 83% | 1013.5 hPa | 0 mm | - | 34 W/m² | - |
| 1777556835 | 11.67° C | 83% | 1013.5 hPa | 0 mm | - | 29 W/m² | - |
| 1777556531 | 11.67° C | 83% | 1013.5 hPa | 0 mm | - | 27 W/m² | - |
| 1777556231 | 11.67° C | 84% | 1013.7 hPa | 0 mm | - | 19 W/m² | - |
| 1777555927 | 11.67° C | 84% | 1013.6 hPa | 0 mm | - | 17 W/m² | - |
| 1777555623 | 11.67° C | 84% | 1013.4 hPa | 0 mm | - | 12 W/m² | - |
| 1777555319 | 11.67° C | 84% | 1013.6 hPa | 0 mm | - | 9 W/m² | - |
| 1777555016 | 11.67° C | 84% | 1013.5 hPa | 0 mm | - | 5 W/m² | - |
| 1777554713 | 11.67° C | 84% | 1013.6 hPa | 0 mm | - | 3 W/m² | - |
| 1777554410 | 11.11° C | 84% | 1013.4 hPa | 0 mm | - | 0 W/m² | - |
| 1777554107 | 11.11° C | 84% | 1013.4 hPa | 0 mm | - | 0 W/m² | - |
| 1777553803 | 11.11° C | 84% | 1013.4 hPa | 0 mm | - | 0 W/m² | - |
| 1777553500 | 11.11° C | 84% | 1013.4 hPa | 0 mm | - | 0 W/m² | - |
| 1777553195 | 11.11° C | 84% | 1013.7 hPa | 0 mm | - | 0 W/m² | - |
* Rain latest hour (hover to see other rain measurements)
** Current wind speed in m/s (hover to see current wind gust speed)